Location: Krasnoyarskiy Pitomnik
(51.1333°N, 71.6167°E)
Time: 14:35:14
(UTC+00:00)

Transit 4A - Pass Details

Date: 18 April 2024
Orbit: 871 x 971 km, 66.8° (Epoch: 19 May)

Event Time Altitude Azimuth Distance (km) Brightness Sun altitude
Rises 16:47:00 0° 321° (NW) 3,473 12.5 -20.1°
Reaches altitude 10° 16:49:29 10° 321° (NW) 2,530 11.4 -20.4°
Maximum altitude 16:55:20 80° 235° (SW) 893 7.7 -20.9°
Enters shadow 16:57:24 42° 155° (SSE) 1,232 8.0 -21.1°
